Location: Brodeslavy
(49.9527°N, 13.5567°E)
Time: 05:38:32
(UTC+00:00)

CZ-2C R/B - Pass Details

Date: 17 June 2025
Orbit: 783 x 866 km, 98.4° (Epoch: 12 July)

Event Time Altitude Azimuth Distance (km) Brightness Sun altitude
Exits shadow 23:15:41 13° 133° (SE) 2,139 4.4 -16.6°
Maximum altitude 23:19:58 43° 66° (ENE) 1,130 3.6 -16.6°
Drops below altitude 10° 23:25:01 10° 356° (N) 2,434 6.4 -16.5°
Sets 23:27:30 0° 350° (N) 3,385 7.4 -16.5°
